Location: Antioch Church
(34.9543°N, 88.5145°W)
Time: 19:43:27
(UTC+00:00)

Okean 3 - Pass Details

Date: 11 December 2019
Orbit: 577 x 600 km, 82.5° (Epoch: 21 January)

Event Time Altitude Azimuth Distance (km) Brightness Sun altitude
Rises 00:51:33 0° 194° (SSW) 2,796 7.2 -25.7°
Reaches altitude 10° 00:53:45 10° 198° (SSW) 1,897 6.4 -26.1°
Enters shadow 00:57:23 54° 244° (WSW) 706 4.0 -26.9°
